| time (UTC) | temp C | wind direction | speed KPH | gust KPH | rain 1hr cm | rain 24hr cm | rain mn cm | humidity % | barometer mb |
| 20260505170503 | 13 | 250 | 4.8 | 12.9 | 0.00 | 0.00 | 0.00 | 82 | 1015.1 |
| 20260505170003 | 13 | 220 | 4.8 | 12.9 | 0.00 | 0.00 | 0.00 | 82 | 1015.1 |
| 20260505165503 | 13 | 225 | 4.8 | 12.9 | 0.00 | 0.00 | 0.00 | 82 | 1015.1 |
| 20260505165003 | 13 | 217 | 4.8 | 11.3 | 0.00 | 0.00 | 0.00 | 82 | 1015.5 |
| 20260505164717 | 13 | 216 | 4.8 | 14.5 | 0.00 | 0.00 | 0.00 | 82 | 1015.1 |
| 20260505164217 | 13 | 200 | 4.8 | 14.5 | 0.00 | 0.00 | 0.00 | 82 | 1015.5 |
| 20260505163503 | 13 | 198 | 4.8 | 14.5 | 0.00 | 0.00 | 0.00 | 82 | 1015.1 |
| 20260505163003 | 13 | 188 | 3.2 | 14.5 | 0.00 | 0.00 | 0.00 | 82 | 1015.5 |
| 20260505162503 | 13 | 173 | 3.2 | 9.7 | 0.00 | 0.00 | 0.00 | 82 | 1015.1 |
| 20260505162003 | 13 | 163 | 3.2 | 8.0 | 0.00 | 0.00 | 0.00 | 83 | 1015.1 |
| 20260505161717 | 13 | 181 | 3.2 | 8.0 | 0.00 | 0.00 | 0.00 | 82 | 1015.1 |
| 20260505161003 | 13 | 132 | 3.2 | 8.0 | 0.00 | 0.00 | 0.00 | 82 | 1015.1 |
| 20260505160503 | 13 | 13 | 4.8 | 11.3 | 0.00 | 0.00 | 0.00 | 82 | 1015.1 |
| 20260505153003 | 13 | 165 | 4.8 | 12.9 | 0.00 | 0.00 | 0.00 | 83 | 1014.8 |
| 20260505152504 | 13 | 145 | 4.8 | 9.7 | 0.00 | 0.00 | 0.00 | 83 | 1014.8 |
| 20260505152003 | 13 | 126 | 4.8 | 9.7 | 0.00 | 0.00 | 0.00 | 83 | 1014.8 |
| 20260505151503 | 13 | 120 | 3.2 | 8.0 | 0.00 | 0.00 | 0.00 | 83 | 1014.8 |
| 20260505151003 | 13 | 203 | 3.2 | 8.0 | 0.00 | 0.00 | 0.00 | 83 | 1014.8 |
| 20260505150503 | 12 | 185 | 3.2 | 8.0 | 0.00 | 0.00 | 0.00 | 83 | 1014.8 |
| 20260505125003 | 12 | 74 | 4.8 | 8.0 | 0.00 | 0.00 | 0.00 | 85 | 1013.4 |
| 20260505124503 | 12 | 72 | 3.2 | 6.4 | 0.00 | 0.00 | 0.00 | 85 | 1013.4 |
| 20260505124217 | 12 | 87 | 3.2 | 9.7 | 0.00 | 0.00 | 0.00 | 85 | 1013.4 |
| 20260505123503 | 12 | 122 | 4.8 | 9.7 | 0.00 | 0.00 | 0.00 | 85 | 1013.1 |
| 20260505123217 | 12 | 127 | 4.8 | 9.7 | 0.00 | 0.00 | 0.00 | 85 | 1013.4 |
| 20260505122503 | 12 | 139 | 4.8 | 9.7 | 0.00 | 0.00 | 0.00 | 85 | 1013.1 |
| 20260505122003 | 12 | 119 | 3.2 | 8.0 | 0.00 | 0.00 | 0.00 | 85 | 1013.1 |
| 20260505121503 | 12 | 94 | 3.2 | 9.7 | 0.00 | 0.00 | 0.00 | 85 | 1013.4 |
| 20260505121003 | 12 | 124 | 4.8 | 9.7 | 0.00 | 0.00 | 0.00 | 85 | 1013.4 |
| 20260505120503 | 12 | 189 | 4.8 | 12.9 | 0.00 | 0.00 | 0.00 | 85 | 1013.4 |
| 20260505120003 | 12 | 206 | 6.4 | 12.9 | 0.00 | 0.00 | 0.00 | 85 | 1013.4 |
| 20260505115503 | 12 | 167 | 4.8 | 12.9 | 0.00 | 0.00 | 0.00 | 85 | 1013.1 |
| 20260505115003 | 12 | 160 | 3.2 | 12.9 | 0.00 | 0.00 | 0.00 | 85 | 1013.1 |
| 20260505114503 | 12 | 131 | 4.8 | 9.7 | 0.00 | 0.00 | 0.00 | 85 | 1013.1 |
| 20260505114003 | 12 | 101 | 4.8 | 12.9 | 0.00 | 0.00 | 0.00 | 86 | 1013.1 |
| 20260505113503 | 12 | 55 | 4.8 | 12.9 | 0.00 | 0.00 | 0.00 | 86 | 1013.1 |
| 20260505113003 | 12 | 29 | 4.8 | 12.9 | 0.00 | 0.00 | 0.00 | 86 | 1012.7 |
| 20260505112503 | 12 | 281 | 4.8 | 12.9 | 0.00 | 0.00 | 0.00 | 86 | 1013.1 |
| 20260505112003 | 12 | 35 | 3.2 | 9.7 | 0.00 | 0.00 | 0.00 | 86 | 1013.1 |
| 20260505111503 | 12 | 107 | 3.2 | 9.7 | 0.00 | 0.00 | 0.00 | 86 | 1012.7 |
| 20260505111003 | 12 | 169 | 3.2 | 9.7 | 0.00 | 0.00 | 0.00 | 86 | 1012.7 |
| 20260505110503 | 12 | 189 | 3.2 | 9.7 | 0.00 | 0.00 | 0.00 | 87 | 1013.1 |
| 20260505102003 | 12 | 187 | 3.2 | 6.4 | 0.00 | 0.00 | 0.00 | 86 | 1012.4 |
| 20260505101503 | 12 | 200 | 3.2 | 9.7 | 0.00 | 0.00 | 0.00 | 86 | 1012.4 |
| 20260505101003 | 12 | 170 | 4.8 | 9.7 | 0.00 | 0.00 | 0.00 | 86 | 1012.4 |
| 20260505100717 | 12 | 140 | 3.2 | 8.0 | 0.00 | 0.00 | 0.00 | 86 | 1012.4 |
| 20260505100003 | 12 | 110 | 3.2 | 8.0 | 0.00 | 0.00 | 0.00 | 87 | 1012.4 |
| 20260505095717 | 12 | 101 | 3.2 | 8.0 | 0.00 | 0.00 | 0.00 | 87 | 1012.4 |
| 20260505095003 | 12 | 110 | 3.2 | 8.0 | 0.00 | 0.00 | 0.00 | 86 | 1012.4 |
| 20260505094503 | 12 | 136 | 3.2 | 9.7 | 0.00 | 0.00 | 0.00 | 86 | 1012.4 |
| 20260505094003 | 12 | 120 | 3.2 | 9.7 | 0.00 | 0.00 | 0.00 | 87 | 1012.4 |
| 20260505093503 | 12 | 93 | 3.2 | 8.0 | 0.00 | 0.00 | 0.00 | 86 | 1012.4 |
| 20260505093003 | 12 | 98 | 3.2 | 6.4 | 0.00 | 0.00 | 0.00 | 86 | 1012.4 |
| 20260505092503 | 12 | 110 | 3.2 | 6.4 | 0.00 | 0.00 | 0.00 | 86 | 1012.1 |
| 20260505092003 | 12 | 104 | 3.2 | 6.4 | 0.00 | 0.00 | 0.00 | 86 | 1012.1 |
| 20260505091503 | 12 | 131 | 3.2 | 6.4 | 0.00 | 0.00 | 0.00 | 86 | 1012.1 |
| 20260505091003 | 12 | 134 | 3.2 | 6.4 | 0.00 | 0.00 | 0.00 | 86 | 1011.7 |
| 20260505090503 | 12 | 169 | 3.2 | 12.9 | 0.00 | 0.00 | 0.00 | 85 | 1012.1 |
| 20260505090003 | 12 | 189 | 3.2 | 12.9 | 0.00 | 0.00 | 0.00 | 85 | 1012.1 |
| 20260505085716 | 12 | 199 | 3.2 | 12.9 | 0.00 | 0.00 | 0.00 | 85 | 1011.7 |
| 20260505085003 | 12 | 153 | 3.2 | 8.0 | 0.00 | 0.00 | 0.00 | 85 | 1012.1 |
| 20260505084503 | 12 | 121 | 3.2 | 9.7 | 0.00 | 0.00 | 0.00 | 85 | 1012.1 |
| 20260505084003 | 12 | 92 | 3.2 | 9.7 | 0.00 | 0.00 | 0.00 | 85 | 1012.1 |
| 20260505083503 | 12 | 105 | 3.2 | 6.4 | 0.00 | 0.00 | 0.00 | 84 | 1012.1 |
| 20260505083003 | 13 | 127 | 3.2 | 8.0 | 0.00 | 0.00 | 0.00 | 84 | 1011.7 |
| 20260505082503 | 13 | 133 | 3.2 | 8.0 | 0.00 | 0.00 | 0.00 | 84 | 1011.7 |
| 20260505082003 | 13 | 133 | 3.2 | 8.0 | 0.00 | 0.00 | 0.00 | 84 | 1011.7 |
| 20260505081503 | 13 | 133 | 1.6 | 6.4 | 0.00 | 0.00 | 0.00 | 83 | 1011.7 |
| 20260505081003 | 13 | 154 | 1.6 | 8.0 | 0.00 | 0.00 | 0.00 | 83 | 1011.4 |
| 20260505080503 | 13 | 137 | 1.6 | 8.0 | 0.00 | 0.00 | 0.00 | 83 | 1011.7 |
| 20260505080003 | 13 | 141 | 3.2 | 8.0 | 0.00 | 0.00 | 0.00 | 82 | 1011.4 |
| 20260505075718 | 13 | 160 | 3.2 | 8.0 | 0.00 | 0.00 | 0.00 | 82 | 1011.4 |
| 20260505075003 | 13 | 154 | 3.2 | 9.7 | 0.00 | 0.00 | 0.00 | 82 | 1011.4 |
| 20260505074503 | 13 | 144 | 3.2 | 9.7 | 0.00 | 0.00 | 0.00 | 81 | 1011.4 |
| 20260505074003 | 13 | 206 | 3.2 | 8.0 | 0.00 | 0.00 | 0.00 | 81 | 1011.4 |
| 20260505073503 | 13 | 240 | 3.2 | 11.3 | 0.00 | 0.00 | 0.00 | 81 | 1011.4 |
| 20260505073003 | 14 | 202 | 3.2 | 11.3 | 0.00 | 0.00 | 0.00 | 80 | 1011.4 |
| 20260505072718 | 14 | 185 | 3.2 | 11.3 | 0.00 | 0.00 | 0.00 | 80 | 1011.4 |
| 20260505072003 | 14 | 159 | 3.2 | 6.4 | 0.00 | 0.00 | 0.00 | 79 | 1011.0 |
| 20260505071503 | 14 | 170 | 3.2 | 8.0 | 0.00 | 0.00 | 0.00 | 79 | 1011.4 |
| 20260505071003 | 14 | 182 | 3.2 | 8.0 | 0.00 | 0.00 | 0.00 | 78 | 1011.4 |
| 20260505070503 | 15 | 202 | 3.2 | 9.7 | 0.00 | 0.00 | 0.00 | 78 | 1011.0 |
| 20260505070003 | 15 | 220 | 4.8 | 9.7 | 0.00 | 0.00 | 0.00 | 77 | 1011.0 |
| 20260505065503 | 15 | 220 | 4.8 | 9.7 | 0.00 | 0.00 | 0.00 | 77 | 1011.0 |
| 20260505065003 | 15 | 212 | 3.2 | 9.7 | 0.00 | 0.00 | 0.00 | 77 | 1011.0 |
| 20260505064503 | 15 | 194 | 3.2 | 8.0 | 0.00 | 0.00 | 0.00 | 77 | 1011.0 |
| 20260505064003 | 15 | 213 | 3.2 | 9.7 | 0.00 | 0.00 | 0.00 | 76 | 1011.0 |
| 20260505063503 | 15 | 223 | 4.8 | 9.7 | 0.00 | 0.00 | 0.00 | 76 | 1010.7 |
| 20260505063003 | 15 | 217 | 4.8 | 8.0 | 0.00 | 0.00 | 0.00 | 75 | 1010.7 |
| 20260505062503 | 16 | 214 | 4.8 | 8.0 | 0.00 | 0.00 | 0.00 | 75 | 1010.7 |
| 20260505062216 | 16 | 214 | 3.2 | 6.4 | 0.00 | 0.00 | 0.00 | 75 | 1010.7 |
| 20260505061503 | 16 | 213 | 3.2 | 8.0 | 0.00 | 0.00 | 0.00 | 73 | 1010.4 |
| 20260505061217 | 16 | 205 | 3.2 | 8.0 | 0.00 | 0.00 | 0.00 | 73 | 1010.7 |
| 20260505060718 | 16 | 218 | 3.2 | 8.0 | 0.00 | 0.00 | 0.00 | 72 | 1010.7 |
| 20260505060003 | 16 | 209 | 3.2 | 8.0 | 0.00 | 0.00 | 0.00 | 71 | 1010.7 |
| 20260505055503 | 17 | 230 | 4.8 | 9.7 | 0.00 | 0.00 | 0.00 | 70 | 1010.7 |
| 20260505055216 | 17 | 238 | 4.8 | 9.7 | 0.00 | 0.00 | 0.00 | 70 | 1010.4 |
| 20260505054503 | 17 | 224 | 3.2 | 8.0 | 0.00 | 0.00 | 0.00 | 68 | 1010.4 |
| 20260505054003 | 17 | 166 | 3.2 | 8.0 | 0.00 | 0.00 | 0.00 | 68 | 1010.4 |
| 20260505053503 | 17 | 154 | 1.6 | 4.8 | 0.00 | 0.00 | 0.00 | 67 | 1010.4 |
| 20260505053003 | 17 | 152 | 1.6 | 6.4 | 0.00 | 0.00 | 0.00 | 67 | 1010.4 |
| 20260505052717 | 17 | 176 | 1.6 | 6.4 | 0.00 | 0.00 | 0.00 | 66 | 1010.4 |
| 20260505052003 | 18 | 167 | 1.6 | 4.8 | 0.00 | 0.00 | 0.00 | 66 | 1010.0 |
| 20260505051503 | 18 | 134 | 1.6 | 4.8 | 0.00 | 0.00 | 0.00 | 65 | 1010.0 |
| 20260505051003 | 17 | 110 | 1.6 | 4.8 | 0.00 | 0.00 | 0.00 | 62 | 1010.0 |
| 20260505050503 | 17 | 99 | 1.6 | 4.8 | 0.00 | 0.00 | 0.00 | 62 | 1010.0 |
| 20260505041503 | 19 | 83 | 1.6 | 3.2 | 0.00 | 0.00 | 0.00 | 53 | 1009.7 |
| 20260505041218 | 19 | 81 | 1.6 | 3.2 | 0.00 | 0.00 | 0.00 | 54 | 1009.3 |
| 20260505040503 | 20 | 91 | 3.2 | 4.8 | 0.00 | 0.00 | 0.00 | 52 | 1009.3 |
| 20260505040003 | 20 | 87 | 3.2 | 4.8 | 0.00 | 0.00 | 0.00 | 51 | 1009.3 |
| 20260505035503 | 20 | 85 | 1.6 | 4.8 | 0.00 | 0.00 | 0.00 | 51 | 1009.0 |
| 20260505035003 | 20 | 83 | 3.2 | 9.7 | 0.00 | 0.00 | 0.00 | 50 | 1009.0 |
| 20260505034716 | 20 | 79 | 4.8 | 9.7 | 0.00 | 0.00 | 0.00 | 50 | 1009.0 |
| 20260505034003 | 21 | 59 | 3.2 | 6.4 | 0.00 | 0.00 | 0.00 | 47 | 1009.0 |
| 20260505033503 | 21 | 42 | 1.6 | 4.8 | 0.00 | 0.00 | 0.00 | 46 | 1008.7 |
| 20260505033003 | 22 | 37 | 1.6 | 4.8 | 0.00 | 0.00 | 0.00 | 47 | 1008.7 |
| 20260505032503 | 22 | 42 | 1.6 | 4.8 | 0.00 | 0.00 | 0.00 | 45 | 1008.7 |
| 20260505032003 | 22 | 78 | 1.6 | 3.2 | 0.00 | 0.00 | 0.00 | 45 | 1008.7 |
| 20260505031503 | 22 | 153 | 0.0 | 3.2 | 0.00 | 0.00 | 0.00 | 45 | 1008.7 |
| 20260505031003 | 23 | 122 | 0.0 | 3.2 | 0.00 | 0.00 | 0.00 | 44 | 1008.7 |
| 20260505030503 | 23 | 241 | 1.6 | 6.4 | 0.00 | 0.00 | 0.00 | 43 | 1008.7 |
| 20260505030003 | 23 | 238 | 1.6 | 6.4 | 0.00 | 0.00 | 0.00 | 43 | 1008.3 |
| 20260505025503 | 23 | 160 | 0.0 | 3.2 | 0.00 | 0.00 | 0.00 | 43 | 1008.3 |
| 20260505025003 | 23 | 79 | 1.6 | 3.2 | 0.00 | 0.00 | 0.00 | 43 | 1008.3 |
| 20260505024503 | 24 | 75 | 1.6 | 4.8 | 0.00 | 0.00 | 0.00 | 42 | 1008.3 |
| 20260505024003 | 24 | 327 | 1.6 | 6.4 | 0.00 | 0.00 | 0.00 | 42 | 1008.3 |
| 20260505023503 | 24 | 310 | 1.6 | 6.4 | 0.00 | 0.00 | 0.00 | 41 | 1008.3 |
| 20260505023003 | 24 | 305 | 1.6 | 6.4 | 0.00 | 0.00 | 0.00 | 40 | 1008.0 |
| 20260505022503 | 25 | 333 | 1.6 | 6.4 | 0.00 | 0.00 | 0.00 | 39 | 1008.3 |
| 20260505022003 | 25 | 321 | 3.2 | 9.7 | 0.00 | 0.00 | 0.00 | 40 | 1008.3 |
| 20260505021503 | 25 | 315 | 3.2 | 9.7 | 0.00 | 0.00 | 0.00 | 40 | 1008.0 |
| 20260505021003 | 25 | 287 | 3.2 | 9.7 | 0.00 | 0.00 | 0.00 | 39 | 1008.3 |
| 20260505020503 | 25 | 291 | 3.2 | 8.0 | 0.00 | 0.00 | 0.00 | 38 | 1008.0 |
| 20260505020003 | 26 | 313 | 3.2 | 9.7 | 0.00 | 0.00 | 0.00 | 38 | 1008.3 |
| 20260505015503 | 26 | 309 | 3.2 | 9.7 | 0.00 | 0.00 | 0.00 | 38 | 1008.3 |
| 20260505015003 | 26 | 275 | 3.2 | 11.3 | 0.00 | 0.00 | 0.00 | 37 | 1008.0 |
| 20260505014718 | 26 | 254 | 4.8 | 11.3 | 0.00 | 0.00 | 0.00 | 37 | 1008.3 |
| 20260505014003 | 26 | 265 | 3.2 | 11.3 | 0.00 | 0.00 | 0.00 | 35 | 1008.0 |
| 20260505013503 | 27 | 17 | 3.2 | 6.4 | 0.00 | 0.00 | 0.00 | 33 | 1008.0 |
| 20260505013003 | 27 | 210 | 3.2 | 11.3 | 0.00 | 0.00 | 0.00 | 32 | 1008.0 |
| 20260505012503 | 27 | 205 | 3.2 | 11.3 | 0.00 | 0.00 | 0.00 | 34 | 1008.0 |
| 20260505012003 | 27 | 74 | 1.6 | 8.0 | 0.00 | 0.00 | 0.00 | 34 | 1008.3 |
| 20260505011503 | 27 | 95 | 1.6 | 6.4 | 0.00 | 0.00 | 0.00 | 33 | 1008.3 |
| 20260505011003 | 27 | 165 | 3.2 | 8.0 | 0.00 | 0.00 | 0.00 | 34 | 1008.0 |
| 20260505010503 | 27 | 169 | 3.2 | 8.0 | 0.00 | 0.00 | 0.00 | 34 | 1008.3 |
| 20260505010003 | 27 | 184 | 3.2 | 9.7 | 0.00 | 0.00 | 0.00 | 35 | 1008.3 |
| 20260505005503 | 26 | 210 | 4.8 | 9.7 | 0.00 | 0.00 | 0.00 | 35 | 1008.3 |
| 20260505005003 | 26 | 225 | 6.4 | 14.5 | 0.00 | 0.00 | 0.00 | 35 | 1008.3 |
| 20260505004503 | 26 | 220 | 8.0 | 17.7 | 0.00 | 0.00 | 0.00 | 35 | 1008.3 |
| 20260505004003 | 27 | 217 | 6.4 | 17.7 | 0.00 | 0.00 | 0.00 | 35 | 1008.0 |
| 20260505003503 | 27 | 236 | 3.2 | 12.9 | 0.00 | 0.00 | 0.00 | 34 | 1008.0 |
| 20260505003003 | 27 | 235 | 3.2 | 12.9 | 0.00 | 0.00 | 0.00 | 34 | 1008.3 |
| 20260505002503 | 27 | 233 | 3.2 | 8.0 | 0.00 | 0.00 | 0.00 | 34 | 1008.3 |
| 20260505002003 | 27 | 223 | 3.2 | 11.3 | 0.00 | 0.00 | 0.00 | 34 | 1008.3 |
| 20260505001503 | 27 | 218 | 4.8 | 11.3 | 0.00 | 0.00 | 0.00 | 33 | 1008.3 |
| 20260505001003 | 27 | 205 | 3.2 | 6.4 | 0.00 | 0.00 | 0.00 | 32 | 1008.3 |
| 20260505000717 | 27 | 193 | 3.2 | 8.0 | 0.00 | 0.00 | 0.00 | 33 | 1008.3 |
| 20260505000003 | 26 | 246 | 4.8 | 11.3 | 0.00 | 0.00 | 0.00 | 34 | 1008.3 |
| 20260504235503 | 26 | 247 | 4.8 | 12.9 | 0.00 | 0.00 | 0.00 | 35 | 1008.3 |
| 20260504235003 | 26 | 240 | 6.4 | 14.5 | 0.00 | 0.00 | 0.00 | 34 | 1008.7 |
| 20260504234503 | 27 | 220 | 4.8 | 14.5 | 0.00 | 0.00 | 0.00 | 32 | 1008.3 |
| 20260504234003 | 27 | 242 | 3.2 | 12.9 | 0.00 | 0.00 | 0.00 | 32 | 1008.7 |
| 20260504233503 | 26 | 242 | 3.2 | 12.9 | 0.00 | 0.00 | 0.00 | 32 | 1008.7 |
| 20260504233003 | 27 | 207 | 3.2 | 16.1 | 0.00 | 0.00 | 0.00 | 33 | 1008.7 |
| 20260504232503 | 26 | 217 | 4.8 | 16.1 | 0.00 | 0.00 | 0.00 | 34 | 1008.3 |
| 20260504232003 | 26 | 208 | 6.4 | 17.7 | 0.00 | 0.00 | 0.00 | 33 | 1008.7 |
| 20260504231503 | 26 | 192 | 4.8 | 17.7 | 0.00 | 0.00 | 0.00 | 33 | 1008.7 |
| 20260504231003 | 27 | 189 | 3.2 | 9.7 | 0.00 | 0.00 | 0.00 | 33 | 1008.7 |
| 20260504230503 | 26 | 220 | 3.2 | 9.7 | 0.00 | 0.00 | 0.00 | 34 | 1008.7 |
| 20260504230003 | 26 | 249 | 3.2 | 12.9 | 0.00 | 0.00 | 0.00 | 34 | 1008.7 |
| 20260504225503 | 26 | 230 | 4.8 | 19.3 | 0.00 | 0.00 | 0.00 | 35 | 1008.7 |
| 20260504225003 | 26 | 235 | 6.4 | 20.9 | 0.00 | 0.00 | 0.00 | 34 | 1008.7 |
| 20260504224503 | 26 | 253 | 6.4 | 20.9 | 0.00 | 0.00 | 0.00 | 36 | 1008.7 |
| 20260504224003 | 25 | 240 | 6.4 | 17.7 | 0.00 | 0.00 | 0.00 | 37 | 1009.0 |
| 20260504223717 | 25 | 223 | 8.0 | 17.7 | 0.00 | 0.00 | 0.00 | 36 | 1009.0 |
| 20260504223003 | 26 | 234 | 6.4 | 12.9 | 0.00 | 0.00 | 0.00 | 35 | 1009.0 |
| 20260504222503 | 26 | 226 | 4.8 | 17.7 | 0.00 | 0.00 | 0.00 | 35 | 1009.0 |
| 20260504222003 | 25 | 225 | 6.4 | 17.7 | 0.00 | 0.00 | 0.00 | 35 | 1009.0 |
| 20260504221503 | 26 | 237 | 6.4 | 16.1 | 0.00 | 0.00 | 0.00 | 34 | 1009.3 |
| 20260504221003 | 26 | 250 | 6.4 | 16.1 | 0.00 | 0.00 | 0.00 | 35 | 1009.3 |
| 20260504220503 | 25 | 241 | 6.4 | 16.1 | 0.00 | 0.00 | 0.00 | 35 | 1009.3 |
| 20260504220003 | 26 | 225 | 8.0 | 20.9 | 0.00 | 0.00 | 0.00 | 34 | 1009.3 |
| 20260504215716 | 26 | 218 | 6.4 | 20.9 | 0.00 | 0.00 | 0.00 | 35 | 1009.3 |
| 20260504215003 | 26 | 221 | 4.8 | 12.9 | 0.00 | 0.00 | 0.00 | 33 | 1009.3 |
| 20260504214503 | 26 | 229 | 4.8 | 12.9 | 0.00 | 0.00 | 0.00 | 32 | 1009.3 |
| 20260504214003 | 26 | 211 | 4.8 | 14.5 | 0.00 | 0.00 | 0.00 | 32 | 1009.3 |
| 20260504213503 | 25 | 220 | 6.4 | 17.7 | 0.00 | 0.00 | 0.00 | 33 | 1009.3 |
| 20260504213003 | 26 | 230 | 6.4 | 17.7 | 0.00 | 0.00 | 0.00 | 32 | 1009.3 |
| 20260504212503 | 26 | 242 | 6.4 | 16.1 | 0.00 | 0.00 | 0.00 | 31 | 1009.7 |
| 20260504212003 | 26 | 230 | 4.8 | 16.1 | 0.00 | 0.00 | 0.00 | 33 | 1009.3 |
| 20260504211503 | 27 | 196 | 3.2 | 9.7 | 0.00 | 0.00 | 0.00 | 32 | 1009.3 |
| 20260504211003 | 26 | 223 | 3.2 | 9.7 | 0.00 | 0.00 | 0.00 | 34 | 1009.3 |
| 20260504210503 | 26 | 216 | 3.2 | 9.7 | 0.00 | 0.00 | 0.00 | 32 | 1009.3 |
| 20260504210003 | 26 | 133 | 3.2 | 8.0 | 0.00 | 0.00 | 0.00 | 32 | 1009.3 |
| 20260504205503 | 26 | 148 | 3.2 | 8.0 | 0.00 | 0.00 | 0.00 | 33 | 1009.7 |
| 20260504205003 | 25 | 213 | 4.8 | 16.1 | 0.00 | 0.00 | 0.00 | 34 | 1009.7 |
| 20260504204503 | 25 | 199 | 4.8 | 16.1 | 0.00 | 0.00 | 0.00 | 33 | 1009.7 |
| 20260504204003 | 25 | 138 | 4.8 | 14.5 | 0.00 | 0.00 | 0.00 | 34 | 1009.7 |
| 20260504203503 | 25 | 177 | 4.8 | 14.5 | 0.00 | 0.00 | 0.00 | 34 | 1009.7 |
| 20260504203003 | 25 | 226 | 3.2 | 9.7 | 0.00 | 0.00 | 0.00 | 33 | 1009.7 |
| 20260504202503 | 25 | 160 | 3.2 | 9.7 | 0.00 | 0.00 | 0.00 | 32 | 1009.7 |
| 20260504202003 | 25 | 207 | 4.8 | 16.1 | 0.00 | 0.00 | 0.00 | 34 | 1009.7 |
| 20260504201503 | 25 | 229 | 6.4 | 17.7 | 0.00 | 0.00 | 0.00 | 34 | 1009.7 |
| 20260504201003 | 25 | 199 | 4.8 | 17.7 | 0.00 | 0.00 | 0.00 | 34 | 1009.7 |
| 20260504200503 | 25 | 128 | 3.2 | 9.7 | 0.00 | 0.00 | 0.00 | 36 | 1009.7 |
| 20260504200003 | 25 | 192 | 3.2 | 12.9 | 0.00 | 0.00 | 0.00 | 35 | 1009.7 |
| 20260504195503 | 25 | 178 | 3.2 | 12.9 | 0.00 | 0.00 | 0.00 | 35 | 1009.7 |
| 20260504195003 | 25 | 173 | 4.8 | 14.5 | 0.00 | 0.00 | 0.00 | 36 | 1009.7 |
| 20260504194503 | 24 | 239 | 6.4 | 19.3 | 0.00 | 0.00 | 0.00 | 38 | 1009.7 |
| 20260504194003 | 25 | 247 | 6.4 | 19.3 | 0.00 | 0.00 | 0.00 | 37 | 1009.7 |
| 20260504193503 | 25 | 214 | 4.8 | 14.5 | 0.00 | 0.00 | 0.00 | 37 | 1009.7 |
| 20260504193217 | 25 | 235 | 3.2 | 14.5 | 0.00 | 0.00 | 0.00 | 36 | 1009.7 |
| 20260504192503 | 25 | 176 | 3.2 | 8.0 | 0.00 | 0.00 | 0.00 | 35 | 1009.7 |
| 20260504192003 | 25 | 149 | 3.2 | 12.9 | 0.00 | 0.00 | 0.00 | 36 | 1009.7 |
| 20260504191503 | 24 | 136 | 6.4 | 12.9 | 0.00 | 0.00 | 0.00 | 37 | 1009.7 |
| 20260504191003 | 24 | 151 | 4.8 | 12.9 | 0.00 | 0.00 | 0.00 | 39 | 1009.7 |
| 20260504190504 | 23 | 200 | 4.8 | 12.9 | 0.00 | 0.00 | 0.00 | 40 | 1010.0 |
| 20260504190003 | 23 | 247 | 4.8 | 11.3 | 0.00 | 0.00 | 0.00 | 40 | 1010.0 |
| 20260504185503 | 24 | 57 | 3.2 | 9.7 | 0.00 | 0.00 | 0.00 | 39 | 1010.0 |
| 20260504185003 | 23 | 121 | 3.2 | 9.7 | 0.00 | 0.00 | 0.00 | 41 | 1010.0 |
| 20260504184503 | 23 | 284 | 4.8 | 12.9 | 0.00 | 0.00 | 0.00 | 42 | 1010.0 |
| 20260504184218 | 22 | 277 | 4.8 | 12.9 | 0.00 | 0.00 | 0.00 | 42 | 1010.4 |
| 20260504183503 | 23 | 222 | 4.8 | 12.9 | 0.00 | 0.00 | 0.00 | 42 | 1010.0 |
| 20260504183003 | 23 | 219 | 4.8 | 14.5 | 0.00 | 0.00 | 0.00 | 42 | 1010.0 |
| 20260504182503 | 23 | 235 | 3.2 | 14.5 | 0.00 | 0.00 | 0.00 | 41 | 1010.0 |
| 20260504182003 | 23 | 257 | 3.2 | 16.1 | 0.00 | 0.00 | 0.00 | 41 | 1010.0 |
| 20260504181503 | 22 | 228 | 4.8 | 16.1 | 0.00 | 0.00 | 0.00 | 43 | 1010.0 |
| 20260504181003 | 22 | 207 | 4.8 | 11.3 | 0.00 | 0.00 | 0.00 | 43 | 1010.0 |
| 20260504180503 | 22 | 213 | 4.8 | 12.9 | 0.00 | 0.00 | 0.00 | 46 | 1010.0 |
| 20260504180003 | 22 | 216 | 4.8 | 12.9 | 0.00 | 0.00 | 0.00 | 44 | 1010.0 |
| 20260504175503 | 22 | 217 | 4.8 | 11.3 | 0.00 | 0.00 | 0.00 | 45 | 1010.0 |
| 20260504175003 | 22 | 161 | 3.2 | 9.7 | 0.00 | 0.00 | 0.00 | 46 | 1010.0 |
| 20260504174503 | 22 | 129 | 3.2 | 8.0 | 0.00 | 0.00 | 0.00 | 46 | 1009.7 |
| 20260504174003 | 22 | 159 | 3.2 | 9.7 | 0.00 | 0.00 | 0.00 | 47 | 1010.0 |
| 20260504173503 | 21 | 197 | 3.2 | 9.7 | 0.00 | 0.00 | 0.00 | 48 | 1010.0 |
| 20260504173003 | 21 | 202 | 3.2 | 8.0 | 0.00 | 0.00 | 0.00 | 47 | 1010.0 |
| 20260504172503 | 21 | 163 | 3.2 | 8.0 | 0.00 | 0.00 | 0.00 | 47 | 1010.0 |
| 20260504172003 | 22 | 109 | 3.2 | 8.0 | 0.00 | 0.00 | 0.00 | 47 | 1010.0 |
| 20260504171717 | 21 | 103 | 3.2 | 8.0 | 0.00 | 0.00 | 0.00 | 48 | 1010.4 |
| 20260504171003 | 20 | 170 | 3.2 | 8.0 | 0.00 | 0.00 | 0.00 | 49 | 1010.0 |